Погода в Икон-Халке

Россия / Карачаево-Черкесская Республика     44°18′31″N   41°54′55″E
темп.,
°C
ветер,
м/с
пор.,
м/с
влажн.,
%
обл.,
%
осадки,
мм/ч
давл.,
гПа
погр.,
м
3 августа, вт
вт300:00+18ююз34800 0.0 101350
03:00+18ююз33731 0.0 101344
06:00+18ююз23740 0.1 101347
09:00+27зюз21470 0.1 1013533
12:00+31с32350 0.0 10122105
15:00+33св322921 0.0 10112827
18:00+31юв233813 0.0 1011156
21:00+23ююз34600 0.0 101347
4 августа, ср
ср400:00+20ююз34675 0.0 101459
03:00+19юз34700 0.0 101550
06:00+19юз35670 0.0 101595
09:00+28з33450 0.0 1015658
12:00+31сз42365 0.0 10141821
15:00+32с533237 0.0 10132856
18:00+30с123993 0.0 1013217
21:00+24юз235798 0.0 101548
5 августа, чт
чт500:00+20з22784 0.1 101512
03:00+18ююз22770 0.1 101519
06:00+19ю227710 0.1 101637
09:00+26в46502 0.1 1015908
12:00+30в663775 0.0 10131743
15:00+32в66350 0.0 10122101
18:00+30в57410 0.0 10111715
21:00+22вюв22660 0.0 101215
6 августа, пт
пт600:00+20ююв22740 0.0 101116
03:00+18ююв22780 0.0 101016
06:00+19ююв22740 0.0 101142
09:00+28вюв46420 0.0 1009753
12:00+33в893299 0.0 10071620
15:00+34вюв91029100 0.0 10051696
18:00+30вюв81342100 0.0 10051069
21:00+24всв51054100 0.1 1006221
7 августа, сб
сб700:00+23вюв4953100 0.0 1006267
03:00+20юв2265100 0.0 100537
06:00+20вюв2463100 0.0 1007112
09:00+27вюв114595 0.0 1006522
12:00+33сз223498 0.0 10051405
15:00+33з873640 0.0 10051954
18:00+19ю459093 6.9 1011136
21:00+20ю3682100 6.9 101196